Back to catalog

STARLINK-1090

AliveCommunicationsVLEO
NORAD 44968·PAYLOAD·🇺🇸 United States

Launched Jan 7, 2020 from Cape Canaveral Space Force Station

Loading…

Next Passes (next 24 hours)

TLE

FreshSource: CelesTrak SupGP

Epoch: Sep 14, 2026, 13:06 UTC

1 44968C 20001BG  26257.54631944  .00118780  00000+0  12874-2 0  2577
2 44968  53.1410 124.5722 0001421 132.0894 189.9635 15.62838322    17

Track STARLINK-1090 in real time with AllMySat

Download on the App Store